Regional Weather Roundup
Issued by NWS Wakefield, VA

Home | Current Version | Previous Version | Graphics & Text | Print | Product List | Glossary On
Versions: 1 2 3 4 5 6 7 8 9 10 11 12 13 14 15 16 17 18 19 20 21 22 23 24 25 26 27 28 29 30 31 32 33 34 35 36 37 38 39 40 41 42 43 44 45 46 47 48 49 50
133
ASUS41 KAKQ 210915
RWRAKQ

REGIONAL WEATHER ROUNDUP
NATIONAL WEATHER SERVICE WAKEFIELD VA
400 AM EST TUE FEB 21 2017

Note: "fair" indicates few or no clouds below 12,000 feet with no
significant weather and/or obstructions to visibility. * = Denotes
station may not report precipitation (e.g., rain,snow,etc.),
thunder or fog.

VAZ042-051-052>054-056-211000-
NORTHERN VIRGINIA

CITY           SKY/WX    TMP DP  RH WIND       PRES   REMARKS
WASH NATIONAL  CLOUDY    45  25  45 E6        30.34S
DULLES         CLOUDY    35  27  72 CALM      30.32S
FORT BELVOIR   PTCLDY    44  22  42 VRB3      30.33R
QUANTICO       PTCLDY    44  36  73 NE5       30.34R
FREDERICKSBRG* PTCLDY    38  35  86 CALM      30.31R
STAFFORD*      PTCLDY    35  31  85 NE3       30.35S
WARRENTON      PTCLDY    34  30  84 CALM      30.32R
CULPEPER*      PTCLDY    35  33  91 CALM      30.33R
MANASSAS*      CLOUDY    33  30  88 CALM      30.32F
LEESBURG*      MOCLDY    43  27  52 MISG      30.33S
WINCHESTER     CLOUDY    37  27  65 E7        30.28S
FRONT ROYAL*   MOSUNNY   41  32  70 CALM      30.27S
LURAY*         MOSUNNY   41  34  75 CALM      30.27S
$$

VAZ048-049-060>072-079>083-211000-
CENTRAL AND SOUTH CENTRAL VIRGINIA

CITY           SKY/WX    TMP DP  RH WIND       PRES   REMARKS
RICHMOND       CLOUDY    40  36  86 CALM      30.30R
CHESTERFIELD*  FAIR      37  21  52 CALM      30.31S
PETERSBURG*    CLOUDY    35  34  94 CALM      30.30R
HANOVER        PTCLDY    37  32  82 CALM      30.32R
TAPPAHANNOCK*  PTCLDY    35  28  75 CALM      30.32R
QUINTON*       FAIR      36  36  99 CALM      30.30R
CHARLOTTSVILLE PTCLDY    47  32  56 CALM      30.30R
GORDONSVILLE*  MOSUNNY   36  33  91 CALM      30.30S
ORANGE*        CLOUDY    34  32  93 CALM      30.32R
LOUISA*        MOCLDY    39  36  87 CALM      30.30R
BUMPASS*       FAIR      38  33  80 NW3       30.30S
FARMVILLE*     PTCLDY    45  39  78 N5        30.29R
CREWE*         FAIR      37  37 100 CALM      30.28S
FORT PICKETT*  FAIR      42  32  66 NW3       30.29R
CHASE CITY*    FAIR      44  34  67 CALM      30.28R
CLARKSVILLE*   FAIR      46  36  66 SE3       30.28R
SOUTH HILL*    PTCLDY    41  36  81 CALM      30.34R
LAWRENCEVILLE* FAIR      42  36  79 CALM      30.28R
EMPORIA*       CLOUDY    36  34  93 CALM      30.30R
$$

VAZ088>098-211000-
SOUTHEAST VIRGINIA

CITY           SKY/WX    TMP DP  RH WIND       PRES   REMARKS
NORFOLK        CLOUDY    44  40  85 N3        30.28R
VIRGINIA BEACH CLOUDY    38  33  82 N3        30.28R
NORFOLK NAVAL  CLOUDY    41  38  89 CALM      30.30R
WEST POINT*    PTCLDY    34  32  94 CALM      30.32R
SALUDA*        FAIR      37  36  99 CALM      30.30S
NEWPORT NEWS   CLOUDY    37  35  92 NE5       30.28F
LANGLEY AFB    CLOUDY    40  37  92 N7        30.28S
FORT EUSTIS    PTCLDY    39  35  85 CALM      30.26F
WILLIAMSBURG*  MOCLDY    39  37  93 CALM      30.29F
HR EXEC AP*    FAIR      30  27  86 CALM      30.27F
FRANKLIN*      PTCLDY    34  32  93 CALM      30.28F
US460-WAKEFLD  PTCLDY    36  35  96 CALM      30.28F
$$

VAZ020-022-025-037-045-211000-
WEST CENTRAL AND SOUTHWEST VIRGINIA

CITY           SKY/WX    TMP DP  RH WIND       PRES   REMARKS
STAUNTON*      MOCLDY    39  32  76 CALM      30.29S
WAYNESBORO*    PTSUNNY   46  30  54 SE5       30.28S
HOT SPRINGS VA CLOUDY    43  30  61 SE10      30.23F
LYNCHBURG      PTCLDY    46  36  68 N5        30.30R
DANVILLE       PTCLDY    45  40  82 NE5       30.26R
SOUTH BOSTON*  FAIR      47  37  67 E3        30.28R
MARTINSVILLE   CLOUDY    40  36  85 CALM      30.28R
ROANOKE        PTCLDY    50  34  54 SE9       30.28R
BLACKSBURG     PTCLDY    47  36  63 SE6       30.26S
DUBLIN*        CLOUDY    45  35  68 CALM      30.24S
MARION*        PTCLDY    51  38  61 NE7       30.22S
HILLSVILLE*    CLOUDY    49  37  63 CALM      30.21S
RICHLANDS*     FAIR      55  35  47 SE13      30.16R
WISE*          MOCLDY    54  30  40 CALM      30.15F
ABINGDON*      MOCLDY    54  37  51 E9        30.16R
$$

MDZ021>025-VAZ099-100-211000-
SOUTHERN MARYLAND AND THE DELMARVA PENINSULA

CITY           SKY/WX    TMP DP  RH WIND       PRES   REMARKS
PATUXENT RIVER PTCLDY    39  32  76 E8        30.32R
BAY BRIDGE APT CLOUDY    39  23  52 CALM      30.35R
LEONARDTOWN    PTCLDY    41  30  65 E6        30.34S
DOVER          PTCLDY    35  26  68 NE7       30.32F
GEORGETOWN     CLOUDY    35  28  75 E6        30.32F
EASTON         CLOUDY    39  25  58 E5        30.37R
CAMBRIDGE      NOT AVBL
SALISBURY      PTCLDY    36  30  79 NE3       30.32R
OCEAN CITY     PTCLDY    41  33  73 NE8       30.32R
WALLOPS ISLAND CLOUDY    41  37  86 NE13      30.31S
ACCOMACK*      CLOUDY    43  37  79 E5        30.30R
$$

NCZ012>017-030>032-211000-
NORTH CENTRAL AND EASTERN NORTH CAROLINA

CITY           SKY/WX    TMP DP  RH WIND       PRES   REMARKS
ROANOKE RAPIDS FAIR      37  36  93 CALM      30.28R
RALEIGH        CLOUDY    50  35  56 E7        30.27R
ELIZABETH CITY CLOUDY    38  36  92 CALM      30.27S
AHOSKIE*         N/A     37  35  93 CALM      30.27F
EDENTON*       CLOUDY    40  37  89 CALM      30.27S
CURRITUCK*     CLOUDY    44  41  91 CALM      30.28R
KILL DEVIL HLS NOT AVBL
MANTEO         CLOUDY    48  40  73 E10       30.26R
CAPE HATTERAS  PTCLDY    52  41  66 NE3       30.23S
TARBORO*       NOT AVBL
GOLDSBORO      PTCLDY    44  41  88 CALM      30.24S
WASHINGTON     PTCLDY    39  37  91 CALM      30.27R
GREENVILLE     PTCLDY    37  37 100 CALM      30.27S
NEW BERN       CLOUDY    45  42  89 NE3       30.26S
WILMINGTON     PTCLDY    44  42  93 NE5       30.22F
$$

VAZ048-211000-
ELSEWHERE

CITY           SKY/WX    TMP DP  RH WIND       PRES   REMARKS
HARRISBURG PA  CLOUDY    34  19  54 CALM      30.34R
BALTIMORE      CLOUDY    37  21  52 E7        30.34R
ANNAPOLIS      PTCLDY    43  26  51 E5        30.34R
ANDREWS AFB    PTCLDY    41  24  50 E7        30.31F
PHILADELPHIA   CLOUDY    34  16  47 NE6       30.36S
HENDERSON NC   CLOUDY    44  33  66 CALM      30.27S
GREENSBORO     PTCLDY    52  36  54 E5        30.22R
ROCKY MOUNT    CLOUDY    41  39  93 CALM      30.27S
$$

VAZ100-211000-
MARINE

STATION/POSITION TIME  TEMP    WIND        PRES    WAVE   SWELL
                       AIR SEA DIR/SP/G            HT/PER HT/PER
                 (UTC) (F)     (DEG/KT/KT) (MB)    (FT/S) (FT/S)
CAPE MAY NJ      0836   39 42   50/  4/  6 1027.1R
LEWES DE         0842   42 43   80/ 12/ 13 1026.9R
OCEAN-CITY-INLET 0842   42 43   60/  5/  7 1027.2R
WACHAPREAGUE VA  0842   45 49   50/ 11/ 15 1025.7R
THOMAS POINT MD  0900   42 42   80/  7/  8   N/A
GOOSES REEF MD   0900   42 41  120/ 10/ 12 1027.7    1/ 2
COVE POINT MD    0842   42     120/  6/  8 1027.6R
SOLOMONS ISLAND  0842   43 44   90/  8/ 11   N/A
BISHOPS HEAD MD  0842   42 46   60/ 10/ 12 1026.8R
PINEY POINT MD   0848          100/  8/  9   N/A
POTOMAC MD       0900   43 43   60/  8/ 10 1025.7    1
CAMBRIDGE MD     0842   41 42   80/  8/ 11 1026.2R
LEWISETTA VA     0842   45 47  100/  8/  9 1026.2S
RAPPAHANNOCK LGT 0848           30/  5/  6 1026.5R
YORK RVR RNG VA  0842   45      20/  6/  6 1025.1R
YORKTOWN VA      0842   44 45  320/  4/  4 1025.5R
JAMESTOWN VA     0900   44 49   40/  4/  6   N/A     0
DOMINION TERM VA 0842   45      50/  3/  4 1025.5R
KIPTOPEKE VA     0848      46   60/  4/  6   N/A
CHES BAY BRIDGE  0842   46 46   30/  6/  6 1025.4R
CAPE HENRY VA    0842   46      30/  4/  4   N/A
WILLOUBY STN VA  0842   46      40/  4/  5 1026.3R
S CRANEY ISL VA  0842   47      40/  6/  6 1025.2R
CAPE HENRY BUOY  0842      47                N/A     2/ 5
OFFSHORE WE BUOY 0851      48                N/A     3/ 5
64NM E OF VA BCH 0850   52 53   70/ 16/ 19 1024.3R   4/ 6
DUCK PIER NC     0842   48 48   30/  6/  7 1024.0F
44100 DUCK FRF   0835      48                N/A     3/ 5
44056 DUCK FRF   0830      49                N/A     3/ 5
OREGON INLET NC  0848           40/ 11/ 14   N/A
HATTERAS NC      0842   53 57   10/ 10/ 12 1023.3F
DIAMOND SHLS NC  0850   61 76   40/ 16/ 19 1022.8S   7/ 9   5/ 9
CAPE LOOKOUT NC  0900   52      20/ 10/ 12 1023.2S
$$




USA.gov is the U.S. government's official web portal to all federal, state and local government web resources and services.